Date String (YYYY-MM-DD hh:mm:ss) UTC,Instrument flags,Ambient pressure (hPa),Sample flow (lpm),Bypass flow (lpm),Sample temperature (°C),Ambient temperature (°C),ASC tube jacket temperature (°C),LED temperature (°C),Box temperature (°C),Sample RH (%),Span deviation,Mass concentration (μg/m³),Mass concentration (μg/m³),Mass concentration (μg/m³)
DateTimeUTC,F1_M11,P_M11,Q1_M11,Q2_M11,T1_M11,T2_M11,T3_M11,T4_M11,T5_M11,U1_M11,ZSPAN_M11,X0_M11,X2_M11,X1_M11
2022-11-26 07:00:00,,0824.3,5.01,0.00,23.7,22.1,00.0,32.7,25.3,11.9,0000.0,0002.42,0000.77,0000.59
2022-11-26 07:01:00,,0824.2,4.98,0.00,23.7,22.1,00.0,32.7,25.2,11.8,0000.0,0001.94,0000.76,0000.58
2022-11-26 07:02:00,,0824.3,5.00,0.00,23.7,22.1,00.0,32.7,25.3,11.8,0000.0,0001.75,0000.76,0000.57
2022-11-26 07:03:00,,0824.2,5.00,0.00,23.7,22.1,00.0,32.7,25.3,11.9,0000.0,0001.72,0000.74,0000.56
2022-11-26 07:04:00,,0824.3,5.01,0.00,23.6,22.1,00.0,32.7,25.2,11.9,0000.0,0001.62,0000.70,0000.55
2022-11-26 07:05:00,,0824.2,4.99,0.00,23.6,22.0,00.0,32.7,25.2,11.9,0000.0,0001.24,0000.69,0000.54
2022-11-26 07:06:00,,0824.2,4.99,0.00,23.6,22.0,00.0,32.7,25.3,12.0,0000.0,0001.02,0000.68,0000.53
2022-11-26 07:07:00,,0824.1,5.02,0.00,23.6,22.0,00.0,32.7,25.2,12.0,0000.0,0000.99,0000.67,0000.53
2022-11-26 07:08:00,,0824.1,4.98,0.00,23.6,22.0,00.0,32.7,25.1,12.0,0000.0,0000.91,0000.62,0000.50
2022-11-26 07:09:00,,0824.1,5.02,0.00,23.6,22.0,00.0,32.6,25.1,12.1,0000.0,0000.98,0000.61,0000.50
2022-11-26 07:10:00,,0824.1,5.00,0.00,23.6,22.0,00.0,32.6,25.2,12.0,0000.0,0000.97,0000.59,0000.49
2022-11-26 07:11:00,,0824.1,4.98,0.00,23.6,22.0,00.0,32.6,25.2,11.9,0000.0,0001.05,0000.62,0000.49
2022-11-26 07:12:00,,0824.1,4.99,0.00,23.6,22.0,00.0,32.6,25.2,11.9,0000.0,0001.11,0000.64,0000.50
2022-11-26 07:13:00,,0824.1,5.01,0.00,23.5,22.0,00.0,32.6,25.2,12.0,0000.0,0001.03,0000.62,0000.51
2022-11-26 07:14:00,,0824.1,5.01,0.00,23.6,22.0,00.0,32.6,25.2,11.9,0000.0,0001.04,0000.63,0000.52
2022-11-26 07:15:00,,0824.1,5.00,0.00,23.5,22.0,00.0,32.6,25.2,11.9,0000.0,0001.05,0000.63,0000.52
2022-11-26 07:16:00,,0824.1,5.00,0.00,23.5,22.0,00.0,32.6,25.1,11.9,0000.0,0000.96,0000.61,0000.52
2022-11-26 07:17:00,,0824.1,5.00,0.00,23.5,22.0,00.0,32.6,25.1,11.9,0000.0,0001.00,0000.61,0000.52
2022-11-26 07:18:00,,0824.1,5.00,0.00,23.5,22.0,00.0,32.6,25.1,11.9,0000.0,0001.15,0000.64,0000.52
2022-11-26 07:19:00,,0824.1,5.00,0.00,23.5,22.0,00.0,32.5,25.1,11.9,0000.0,0001.19,0000.66,0000.53
2022-11-26 07:20:00,,0824.1,4.99,0.00,23.5,22.0,00.0,32.5,25.1,11.9,0000.0,0001.06,0000.65,0000.53
2022-11-26 07:21:00,,0824.1,5.00,0.00,23.5,22.0,00.0,32.5,25.1,11.9,0000.0,0001.11,0000.67,0000.54
2022-11-26 07:22:00,,0824.1,5.00,0.00,23.5,22.0,00.0,32.5,25.1,11.9,0000.0,0001.08,0000.66,0000.54
2022-11-26 07:23:00,,0824.1,5.00,0.00,23.5,22.0,00.0,32.5,25.1,11.9,0000.0,0001.05,0000.64,0000.53
2022-11-26 07:24:00,,0824.1,5.00,0.00,23.5,22.0,00.0,32.5,25.1,11.8,0000.0,0001.04,0000.64,0000.52
2022-11-26 07:25:00,,0824.1,4.99,0.00,23.5,22.0,00.0,32.5,25.2,11.8,0000.0,0001.07,0000.66,0000.52
2022-11-26 07:26:00,,0824.1,5.01,0.00,23.5,22.0,00.0,32.5,25.1,11.8,0000.0,0001.09,0000.66,0000.53
2022-11-26 07:27:00,,0824.0,4.99,0.00,23.5,22.0,00.0,32.5,25.1,11.8,0000.0,0001.11,0000.68,0000.54
2022-11-26 07:28:00,,0824.0,5.01,0.00,23.5,22.0,00.0,32.5,25.1,11.8,0000.0,0001.10,0000.69,0000.55
2022-11-26 07:29:00,,0824.0,4.99,0.00,23.5,22.0,00.0,32.5,25.2,11.8,0000.0,0000.97,0000.67,0000.55
2022-11-26 07:30:00,,0824.0,5.01,0.00,23.5,22.0,00.0,32.5,25.1,11.8,0000.0,0000.96,0000.67,0000.56
2022-11-26 07:31:00,,0824.0,4.99,0.00,23.5,22.0,00.0,32.5,25.1,11.9,0000.0,0001.00,0000.68,0000.56
2022-11-26 07:32:00,,0824.0,5.01,0.00,23.5,22.0,00.0,32.5,25.1,11.9,0000.0,0000.96,0000.67,0000.56
2022-11-26 07:33:00,,0823.9,5.02,0.00,23.5,22.0,00.0,32.4,25.2,11.9,0000.0,0000.93,0000.65,0000.56
2022-11-26 07:34:00,,0823.9,4.98,0.00,23.5,22.0,00.0,32.5,25.2,11.9,0000.0,0000.85,0000.64,0000.56
2022-11-26 07:35:00,,0823.9,5.01,0.00,23.5,22.0,00.0,32.4,25.1,11.9,0000.0,0000.85,0000.63,0000.56
2022-11-26 07:36:00,,0823.8,4.99,0.00,23.5,22.0,00.0,32.4,25.1,11.9,0000.0,0000.81,0000.61,0000.55
2022-11-26 07:37:00,,0823.8,5.02,0.00,23.5,22.0,00.0,32.4,25.2,11.9,0000.0,0000.83,0000.62,0000.55
2022-11-26 07:38:00,,0823.8,4.99,0.00,23.5,22.0,00.0,32.4,25.2,11.9,0000.0,0000.85,0000.61,0000.55
2022-11-26 07:39:00,,0823.8,4.99,0.00,23.5,22.0,00.0,32.4,25.2,11.9,0000.0,0000.84,0000.61,0000.56
2022-11-26 07:40:00,,0823.8,5.01,0.00,23.5,22.1,00.0,32.4,25.3,11.9,0000.0,0000.85,0000.62,0000.56
2022-11-26 07:41:00,,0823.7,4.99,0.00,23.5,22.1,00.0,32.4,25.3,12.0,0000.0,0000.87,0000.63,0000.57
2022-11-26 07:42:00,,0823.7,5.00,0.00,23.5,22.0,00.0,32.4,25.2,12.1,0000.0,0000.93,0000.66,0000.58
2022-11-26 07:43:00,,0823.7,5.01,0.00,23.5,22.0,00.0,32.4,25.1,12.1,0000.0,0001.17,0000.73,0000.59
2022-11-26 07:44:00,,0823.7,5.00,0.00,23.4,22.0,00.0,32.4,25.1,12.1,0000.0,0001.33,0000.75,0000.60
2022-11-26 07:45:00,,0823.7,5.00,0.00,23.4,22.0,00.0,32.4,25.1,12.2,0000.0,0001.36,0000.77,0000.62
2022-11-26 07:46:00,,0823.6,5.00,0.00,23.4,21.9,00.0,32.4,25.0,12.2,0000.0,0001.43,0000.80,0000.63
2022-11-26 07:47:00,,0823.6,5.01,0.00,23.4,21.9,00.0,32.4,25.0,12.2,0000.0,0001.48,0000.83,0000.64
2022-11-26 07:48:00,,0823.6,4.99,0.00,23.4,21.9,00.0,32.4,25.1,12.3,0000.0,0001.46,0000.83,0000.65
2022-11-26 07:49:00,,0823.6,4.99,0.00,23.4,21.9,00.0,32.4,25.0,12.3,0000.0,0001.44,0000.83,0000.65
2022-11-26 07:50:00,,0823.6,5.02,0.00,23.4,21.9,00.0,32.4,25.0,12.3,0000.0,0001.50,0000.86,0000.65
2022-11-26 07:51:00,,0823.6,4.99,0.00,23.4,21.8,00.0,32.4,25.0,12.3,0000.0,0001.61,0000.91,0000.66
2022-11-26 07:52:00,,0823.5,5.02,0.00,23.4,21.8,00.0,32.4,25.0,12.1,0000.0,0002.79,0000.92,0000.66
2022-11-26 07:53:00,,0823.5,4.99,0.00,23.3,21.8,00.0,32.4,25.0,12.1,0000.0,0002.75,0000.89,0000.66
2022-11-26 07:54:00,,0823.5,5.00,0.00,23.3,21.8,00.0,32.4,25.0,12.1,0000.0,0002.55,0000.85,0000.66
2022-11-26 07:55:00,,0823.5,4.99,0.00,23.3,21.8,00.0,32.4,25.0,12.1,0000.0,0002.38,0000.82,0000.65
2022-11-26 07:56:00,,0823.4,5.00,0.00,23.3,21.8,00.0,32.4,25.1,12.1,0000.0,0002.40,0000.82,0000.65
2022-11-26 07:57:00,,0823.5,5.00,0.00,23.3,21.8,00.0,32.3,25.0,12.0,0000.0,0002.45,0000.82,0000.64
2022-11-26 07:58:00,,0823.4,4.99,0.00,23.3,21.8,00.0,32.3,25.0,12.0,0000.0,0002.49,0000.83,0000.64
2022-11-26 07:59:00,,0823.4,5.01,0.00,23.3,21.8,00.0,32.3,25.0,12.2,0000.0,0002.59,0000.83,0000.64
